Weather History for KCGE - July, 2013

Change the Weather History Date:

Wednesday, July 3, 2013

  Actual Average (KESN) Record (KESN)
Temperature  
Mean Temperature 80 °F -  
Max Temperature 86 °F 89 °F 97 °F (1966)
Min Temperature 73 °F 69 °F 53 °F (1957)
Cooling Degree Days 14    
Growing Degree Days 30 (Base 50)    
Moisture  
Dew Point 73 °F    
Average Humidity 81    
Maximum Humidity 94    
Minimum Humidity 62    
Precipitation  
Precipitation 0.00 in - - ()
Sea Level Pressure  
Sea Level Pressure 30.22 in    
Wind  
Wind Speed 5 mph (South)    
Max Wind Speed 13 mph    
Max Gust Speed 17 mph    
Visibility 10 miles    
Events      
Averages and records for this station are not official NWS values.
T = Trace of Precipitation, MM = Missing Value Source: NWS Daily Summary

Daily Weather History Graph

Daily Weather History Graph

Search for Another Location

Airport or City:

Trip Planner

Search our weather history database for the weather conditions in past years. The results will help you decide how hot, cold, wet, or windy it might be!

Date:

Astronomy

Jul. 03, 2013 Rise Set
Actual Time 5:44 AM EDT 8:31 PM EDT
Civil Twilight 5:13 AM EDT 9:03 PM EDT
Nautical Twilight 4:33 AM EDT 9:43 PM EDT
Astronomical Twilight 3:48 AM EDT 10:28 PM EDT
Moon 2:19 AM EDT (7/3) 4:41 PM EDT (7/3)
Length of Visible Light 15h 50m
Length of Day
14h 47m
Waning Crescent, 18% of the Moon is Illuminated
Jul 3
Waning Crescent
Jul 8
New
Jul 15
First Quarter
Jul 22
Full
Jul 29
Last Quarter

Hourly Weather History & Observations

Time (EDT) Temp. Heat Index Dew Point Humidity Pressure Visibility Wind Dir Wind Speed Gust Speed Precip Events Conditions
12:10 AM 75.2 °F - 71.6 °F 89% 30.20 in 10.0 mi SSE 3.5 mph - N/A   Clear
12:30 AM 75.2 °F - 73.4 °F 94% 30.20 in 10.0 mi South 4.6 mph - N/A   Clear
12:50 AM 75.2 °F - 73.4 °F 94% 30.20 in 10.0 mi South 5.8 mph - N/A   Clear
1:10 AM 75.2 °F - 73.4 °F 94% 30.20 in 10.0 mi South 4.6 mph - N/A   Scattered Clouds
1:30 AM 75.2 °F - 73.4 °F 94% 30.20 in 10.0 mi South 4.6 mph - N/A   Clear
1:50 AM 75.2 °F - 73.4 °F 94% 30.20 in 10.0 mi Calm Calm - N/A   Scattered Clouds
2:10 AM 75.2 °F - 73.4 °F 94% 30.20 in 10.0 mi South 3.5 mph - N/A   Mostly Cloudy
2:30 AM 75.2 °F - 73.4 °F 94% 30.20 in 10.0 mi Calm Calm - N/A   Mostly Cloudy
2:50 AM 75.2 °F - 73.4 °F 94% 30.20 in 10.0 mi Calm Calm - N/A   Mostly Cloudy
3:10 AM 73.4 °F - 71.6 °F 94% 30.19 in 10.0 mi SSE 3.5 mph - N/A   Scattered Clouds
3:30 AM 73.4 °F - 71.6 °F 94% 30.19 in 10.0 mi Calm Calm - N/A   Clear
3:50 AM 73.4 °F - 71.6 °F 94% 30.19 in 10.0 mi Calm Calm - N/A   Clear
4:10 AM 73.4 °F - 71.6 °F 94% 30.20 in 10.0 mi Calm Calm - N/A   Clear
4:30 AM 73.4 °F - 71.6 °F 94% 30.20 in 10.0 mi SSE 4.6 mph - N/A   Scattered Clouds
4:50 AM 73.4 °F - 71.6 °F 94% 30.20 in 10.0 mi SSE 5.8 mph - N/A   Mostly Cloudy
5:10 AM 73.4 °F - 71.6 °F 94% 30.20 in 10.0 mi SE 4.6 mph - N/A   Mostly Cloudy
5:30 AM 73.4 °F - 71.6 °F 94% 30.20 in 10.0 mi SSE 4.6 mph - N/A   Scattered Clouds
5:51 AM 73.4 °F - 71.6 °F 94% 30.21 in 10.0 mi SSE 3.5 mph - N/A   Scattered Clouds
6:11 AM 75.2 °F - 73.4 °F 94% 30.21 in 10.0 mi SSE 4.6 mph - N/A   Scattered Clouds
6:31 AM 75.2 °F - 73.4 °F 94% 30.21 in 10.0 mi SSE 3.5 mph - N/A   Scattered Clouds
6:51 AM 75.2 °F - 73.4 °F 94% 30.21 in 10.0 mi South 3.5 mph - N/A   Scattered Clouds
7:11 AM 75.2 °F - 73.4 °F 94% 30.22 in 10.0 mi South 6.9 mph - N/A   Scattered Clouds
7:31 AM 77.0 °F - 73.4 °F 89% 30.23 in 10.0 mi South 6.9 mph - N/A   Mostly Cloudy
7:51 AM 77.0 °F - 73.4 °F 89% 30.23 in 10.0 mi SSW 9.2 mph 16.1 mph N/A   Mostly Cloudy
8:11 AM 77.0 °F - 71.6 °F 83% 30.24 in 10.0 mi SSW 6.9 mph - N/A   Overcast
8:31 AM 78.8 °F - 73.4 °F 83% 30.24 in 10.0 mi SSW 3.5 mph - N/A   Overcast
8:51 AM 78.8 °F - 71.6 °F 78% 30.24 in 10.0 mi SSW 10.4 mph - N/A   Overcast
9:11 AM 78.8 °F - 71.6 °F 78% 30.25 in 10.0 mi SSW 9.2 mph 16.1 mph N/A   Overcast
9:31 AM 78.8 °F - 71.6 °F 78% 30.25 in 10.0 mi SSW 5.8 mph - N/A   Overcast
9:51 AM 80.6 °F 85.4 °F 73.4 °F 79% 30.25 in 10.0 mi SW 6.9 mph - N/A   Mostly Cloudy
10:11 AM 80.6 °F 85.4 °F 73.4 °F 79% 30.25 in 10.0 mi South 10.4 mph - N/A   Scattered Clouds
10:31 AM 80.6 °F 84.6 °F 71.6 °F 74% 30.26 in 10.0 mi SSW 8.1 mph - N/A   Mostly Cloudy
10:51 AM 80.6 °F 84.6 °F 71.6 °F 74% 30.26 in 10.0 mi SSW 9.2 mph - N/A   Mostly Cloudy
11:11 AM 82.4 °F 87.2 °F 71.6 °F 70% 30.25 in 10.0 mi SSW 9.2 mph 17.3 mph N/A   Scattered Clouds
11:31 AM 82.4 °F 87.2 °F 71.6 °F 70% 30.25 in 10.0 mi South 9.2 mph - N/A   Mostly Cloudy
11:51 AM 80.6 °F 84.6 °F 71.6 °F 74% 30.25 in 10.0 mi SSW 8.1 mph 17.3 mph N/A   Mostly Cloudy
12:11 PM 82.4 °F 87.2 °F 71.6 °F 70% 30.25 in 10.0 mi SSW 11.5 mph 16.1 mph N/A   Mostly Cloudy
12:31 PM 82.4 °F 87.2 °F 71.6 °F 70% 30.24 in 10.0 mi South 6.9 mph - N/A   Mostly Cloudy
12:51 PM 82.4 °F 87.2 °F 71.6 °F 70% 30.24 in 10.0 mi South 6.9 mph - N/A   Mostly Cloudy
1:11 PM 84.2 °F 89.6 °F 71.6 °F 66% 30.23 in 10.0 mi South 6.9 mph 17.3 mph N/A   Scattered Clouds
1:31 PM 84.2 °F 88.4 °F 69.8 °F 62% 30.23 in 10.0 mi SSW 10.4 mph - N/A   Scattered Clouds
1:51 PM 84.2 °F 89.6 °F 71.6 °F 66% 30.23 in 10.0 mi South 8.1 mph - N/A   Scattered Clouds
2:11 PM 84.2 °F 89.6 °F 71.6 °F 66% 30.22 in 10.0 mi SSW 8.1 mph - N/A   Scattered Clouds
2:32 PM 86.0 °F 91.8 °F 71.6 °F 62% 30.21 in 10.0 mi South 9.2 mph - N/A   Scattered Clouds
2:52 PM 84.2 °F 90.9 °F 73.4 °F 70% 30.21 in 10.0 mi South 10.4 mph - N/A   Mostly Cloudy
3:12 PM 86.0 °F 93.4 °F 73.4 °F 66% 30.21 in 10.0 mi SSE 12.7 mph - N/A   Scattered Clouds
3:32 PM 86.0 °F 93.4 °F 73.4 °F 66% 30.21 in 10.0 mi South 9.2 mph 16.1 mph N/A   Scattered Clouds
3:52 PM 84.2 °F 89.6 °F 71.6 °F 66% 30.21 in 10.0 mi South 9.2 mph 17.3 mph N/A   Scattered Clouds
4:12 PM 86.0 °F 93.4 °F 73.4 °F 66% 30.21 in 10.0 mi South 8.1 mph 16.1 mph N/A   Scattered Clouds
4:32 PM 84.2 °F 89.6 °F 71.6 °F 66% 30.21 in 10.0 mi SSE 10.4 mph - N/A   Scattered Clouds
4:52 PM 84.2 °F 89.6 °F 71.6 °F 66% 30.20 in 10.0 mi South 8.1 mph - N/A   Scattered Clouds
5:12 PM 86.0 °F 91.8 °F 71.6 °F 62% 30.20 in 10.0 mi SSE 10.4 mph 17.3 mph N/A   Mostly Cloudy
5:32 PM 82.4 °F 88.2 °F 73.4 °F 74% 30.20 in 10.0 mi South 9.2 mph - N/A   Scattered Clouds
5:52 PM 82.4 °F 87.2 °F 71.6 °F 70% 30.20 in 10.0 mi South 11.5 mph - N/A   Scattered Clouds
6:12 PM 82.4 °F 88.2 °F 73.4 °F 74% 30.20 in 10.0 mi South 10.4 mph 16.1 mph N/A   Scattered Clouds
6:32 PM 80.6 °F 85.4 °F 73.4 °F 79% 30.22 in 10.0 mi South 8.1 mph - N/A   Clear
6:52 PM 80.6 °F 85.4 °F 73.4 °F 79% 30.22 in 10.0 mi South 8.1 mph - N/A   Clear
7:12 PM 80.6 °F 85.4 °F 73.4 °F 79% 30.22 in 10.0 mi South 6.9 mph - N/A   Clear
7:32 PM 80.6 °F 85.4 °F 73.4 °F 79% 30.22 in 10.0 mi SSW 5.8 mph - N/A   Scattered Clouds
7:52 PM 80.6 °F 85.4 °F 73.4 °F 79% 30.22 in 10.0 mi SSW 5.8 mph - N/A   Scattered Clouds
8:12 PM 80.6 °F 85.4 °F 73.4 °F 79% 30.22 in 10.0 mi South 4.6 mph - N/A   Clear
8:32 PM 78.8 °F - 73.4 °F 83% 30.22 in 10.0 mi South 6.9 mph - N/A   Clear
8:52 PM 78.8 °F - 73.4 °F 83% 30.21 in 10.0 mi South 4.6 mph - N/A   Clear
9:12 PM 78.8 °F - 73.4 °F 83% 30.22 in 10.0 mi South 4.6 mph - N/A   Clear
9:32 PM 78.8 °F - 73.4 °F 83% 30.23 in 10.0 mi SSE 4.6 mph - N/A   Clear
9:52 PM 78.8 °F - 73.4 °F 83% 30.23 in 10.0 mi South 3.5 mph - N/A   Clear
10:12 PM 78.8 °F - 73.4 °F 83% 30.24 in 10.0 mi South 4.6 mph - N/A   Clear
10:32 PM 78.8 °F - 75.2 °F 89% 30.25 in 10.0 mi South 3.5 mph - N/A   Clear
10:52 PM 78.8 °F - 75.2 °F 89% 30.25 in 10.0 mi South 4.6 mph - N/A   Clear
11:13 PM 78.8 °F - 75.2 °F 89% 30.25 in 10.0 mi South 4.6 mph - N/A   Clear
11:33 PM 78.8 °F - 75.2 °F 89% 30.25 in 10.0 mi SSE 3.5 mph - N/A   Clear
11:53 PM 77.0 °F - 73.4 °F 89% 30.25 in 10.0 mi SSE 3.5 mph - N/A   Clear